Current weather by "City, St" or "zip code"  
 
Advertise Here

Current Conditions: Smyrna, Smyrna Airport, TN

Rain Fog/Mist


49.0 F

Last Updated on Jan 25 2021, 3:56 am CST
Humidity: 100%
Wind Speed: E 4.6 mph
Barometer 29.92 in
Dewpoint: 48.9 F
Visibility: 6.00 mi
Precip: --
Heat Index: NA
Wind Chill: 47 F
Current conditions at:

Smyrna, Smyrna Airport, TN (KMQY)

Lat: 36.00889 Lon: 86.52

Local Radar Image active severe weather and emergency alerts image image weather storm and storm spotter reports image weather observation monitoring service image
Local
Radar
Active
Alerts
Storm Reports Obs
Monitoring

Sign-up For Email & Text Message Weather Alert Notification Services


Advertise Here

Observation History for Smyrna, Smyrna Airport, TN


Time Wind
(mph)
Vis
(mi)
Weather Precip (in) Temperature (F) Relative
Humidity
Wind
Chill
(F)
Heat
Index
(F)
Pressure
Air Dwpt altimeter
(in)
sea level
(mb)
Rmks
3:56 am CST E 4.6 6.00 Rain Fog/Mist -- 49.0 48.9 100% 47 NA 29.92 1013.9
2:56 am CST N 0.0 5.00 Light Rain Fog/Mist -- 48.0 48.0 100% NA NA 29.96 1015.5
1:56 am CST E 4.6 5.00 Light Rain Fog/Mist -- 48.0 48.0 100% 46 NA 29.96 1015.2
12:56 am CST NE 3.5 2.00 Fog/Mist -- 48.0 48.0 100% NA NA 29.99 1016.4
11:56 pm CST N 0.0 1.75 Fog/Mist -- 48.0 46.9 96% NA NA 30.01 1017.0
10:56 pm CST NE 5.8 6.00 Fog/Mist -- 48.0 46.9 96% 45 NA 30.03 1017.6
9:56 pm CST N 0.0 3.00 Fog/Mist -- 48.0 46.9 96% NA NA 30.04 1017.9
8:56 pm CST N 0.0 4.00 Fog/Mist -- 48.0 46.9 96% NA NA 30.05 1018.5
7:56 pm CST S 3.5 9.00 Overcast -- 48.0 46.9 96% NA NA 30.06 1018.8
6:56 pm CST SE 4.6 6.00 Fog/Mist -- 48.0 46.9 96% 46 NA 30.06 1018.7
5:56 pm CST S 3.5 10.00 Overcast -- 47.0 46.9 100% NA NA 30.07 1019.3
4:56 pm CST N 0.0 5.00 Fog/Mist -- 48.0 46.9 96% NA NA 30.08 1019.4
3:56 pm CST NW 6.9 3.00 Light Rain Fog/Mist -- 49.0 46.9 93% 46 NA 30.08 1019.4
2:56 pm CST S 3.5 10.00 Overcast -- 53.0 42.1 66% NA NA 30.05 1018.5
1:56 pm CST S 8.1 10.00 Overcast -- 54.0 39.9 59% 52 NA 30.05 1018.5
12:56 pm CST S 4.6 10.00 Overcast -- 53.0 39.0 59% 52 NA 30.07 1018.9
11:56 am CST SE 5.8 10.00 Overcast -- 51.0 37.9 61% 49 NA 30.10 1020.1
10:56 am CST S 4.6 10.00 Light Rain -- 50.0 35.1 57% 48 NA 30.14 1021.7
9:56 am CST S 5.8 10.00 Overcast -- 48.0 33.1 56% 45 NA 30.15 1021.8
8:56 am CST SE 4.6 10.00 Light Rain -- 45.0 28.0 52% 43 NA 30.14 1021.6
7:56 am CST S 4.6 10.00 Light Rain -- 41.0 25.0 53% 38 NA 30.13 1021.3
6:56 am CST S 4.6 10.00 Overcast -- 40.0 25.0 55% 37 NA 30.13 1021.4
5:56 am CST SE 4.6 10.00 Overcast -- 39.0 24.1 55% 36 NA 30.14 1021.6
4:56 am CST SE 4.6 10.00 Overcast -- 39.0 24.1 55% 36 NA 30.14 1021.6

Regional Weather Observation


Nashville, Nashville International Airport, TN (KBNA)

Rain Fog/Mist
49.0 F

Smyrna, Smyrna Airport, TN (KMQY)

Rain Fog/Mist
49.0 F

Lebanon Municipal Airport, TN (KM54)

Overcast
48.0 F

Sumner County Regional Airport, TN (KXNX)

Fog/Mist
48.0 F

Sumner County Regional Airport, TN (KXNX)

Fog/Mist
48.0 F

Springfield Robertson County Airport, TN (KM91)

Fog/Mist
46.0 F